Glendale Luke AFB, AZ

2:29 PM MST on December 09, 2019 (GMT -0700)
Luke Air Force Base

Weather History for KLUF - August, 2019

Change the Weather History Date:

Tuesday, August 27, 2019

  Actual Average Record
Temperature  
Mean Temperature 98 °F -  
Max Temperature 109 °F 104 °F 116 °F (1981)
Min Temperature 88 °F 72 °F 57 °F (1978)
Cooling Degree Days 34    
Growing Degree Days 48 (Base 50)    
Moisture  
Dew Point 61 °F    
Average Humidity 28    
Maximum Humidity 45    
Minimum Humidity 18    
Precipitation  
Precipitation 0.00 in - - ()
Sea Level Pressure  
Sea Level Pressure 29.69 in    
Wind  
Wind Speed 10 mph (SW)    
Max Wind Speed 18 mph    
Max Gust Speed 24 mph    
Visibility 10 miles    
Events      
Averages and records for this station are not official NWS values.
T = Trace of Precipitation, MM = Missing Value Source: NWS Daily Summary

Daily Weather History Graph

Daily Weather History Graph

Search for Another Location

Airport or City:

Astronomy

Aug. 27, 2019 Rise Set
Actual Time 6:00 AM MST 7:01 PM MST
Civil Twilight 5:34 AM MST 7:27 PM MST
Nautical Twilight 5:04 AM MST 7:57 PM MST
Astronomical Twilight 4:32 AM MST 8:28 PM MST
Moon 2:39 AM MST (8/27) 5:16 PM MST (8/27)
Length of Visible Light 13h 52m
Length of Day
13h 01m
Waning Crescent, 10% of the Moon is Illuminated
Aug 27
Waning Crescent
Aug 30
New
Sep 5
First Quarter
Sep 13
Full
Sep 21
Last Quarter

Hourly Weather History & Observations

Time (MST) Temp. Heat Index Dew Point Humidity Pressure Visibility Wind Dir Wind Speed Gust Speed Precip Events Conditions
12:58 AM 94.8 °F 95.3 °F 61.2 °F 33% 29.68 in 10.0 mi SW 8.1 mph - N/A   Clear
1:58 AM 93.6 °F 93.8 °F 61.0 °F 34% 29.68 in 10.0 mi SW 10.4 mph - N/A   Clear
2:58 AM 92.1 °F 93.2 °F 62.8 °F 38% 29.68 in 10.0 mi SSW 10.4 mph - N/A   Clear
3:58 AM 90.9 °F 92.0 °F 63.1 °F 40% 29.69 in 10.0 mi SW 6.9 mph - N/A   Clear
4:58 AM 89.6 °F 90.8 °F 64.0 °F 42% 29.69 in 10.0 mi WSW 9.2 mph - N/A   Clear
5:58 AM 88.5 °F 90.1 °F 64.4 °F 45% 29.71 in 10.0 mi West 5.8 mph - N/A   Clear
6:58 AM 90.0 °F 91.7 °F 64.4 °F 43% 29.73 in 10.0 mi SW 8.1 mph - N/A   Clear
7:58 AM 93.4 °F 94.7 °F 63.9 °F 37% 29.74 in 10.0 mi SW 10.4 mph - N/A   Clear
8:58 AM 95.9 °F 97.5 °F 63.7 °F 34% 29.74 in 10.0 mi SSW 10.4 mph - N/A   Clear
10:52 AM 100.4 °F 102.4 °F 62.6 °F 29% 29.74 in 10.0 mi SSW 8.1 mph - N/A   Clear
10:58 AM 100.6 °F 102.7 °F 63.3 °F 29% 29.74 in 10.0 mi SSW 9.2 mph - N/A   Clear
11:58 AM 104.0 °F 106.6 °F 63.3 °F 26% 29.72 in 10.0 mi SSW 11.5 mph - N/A   Clear
12:29 PM 105.8 °F 108.3 °F 62.6 °F 24% 29.71 in 10.0 mi SW 13.8 mph 19.6 mph N/A   Clear
12:58 PM 106.7 °F 108.3 °F 61.0 °F 22% 29.70 in 10.0 mi SW 11.5 mph 18.4 mph N/A   Clear
1:31 PM 107.6 °F 108.2 °F 59.0 °F 20% 29.69 in 10.0 mi WSW 13.8 mph 23.0 mph N/A   Clear
1:58 PM 107.8 °F 109.2 °F 60.6 °F 21% 29.68 in 10.0 mi West 9.2 mph 21.9 mph N/A   Clear
2:11 PM 109.4 °F 111.9 °F 60.8 °F 21% 29.67 in 10.0 mi WSW 18.4 mph 20.7 mph N/A   Clear
2:37 PM 109.4 °F 111.9 °F 60.8 °F 21% 29.66 in 10.0 mi WSW 17.3 mph 21.9 mph N/A   Clear
2:58 PM 109.4 °F 111.0 °F 59.4 °F 20% 29.65 in 10.0 mi WSW 16.1 mph 24.2 mph N/A   Clear
3:58 PM 109.6 °F 110.5 °F 59.4 °F 19% 29.63 in 10.0 mi SW 15.0 mph 21.9 mph N/A   Clear
4:58 PM 109.8 °F 109.9 °F 56.7 °F 18% 29.62 in 10.0 mi SW 16.1 mph - N/A   Clear
5:58 PM 108.3 °F 108.6 °F 57.0 °F 19% 29.62 in 10.0 mi SW 13.8 mph - N/A   Clear
6:58 PM 106.0 °F 105.8 °F 56.5 °F 20% 29.63 in 10.0 mi SW 15.0 mph - N/A   Clear
7:58 PM 103.6 °F 102.9 °F 55.9 °F 21% 29.65 in 10.0 mi SW 12.7 mph - N/A   Clear
8:58 PM 101.5 °F 99.9 °F 54.1 °F 21% 29.68 in 10.0 mi WSW 10.4 mph - N/A   Clear
9:58 PM 99.7 °F 98.7 °F 56.3 °F 24% 29.68 in 10.0 mi WSW 11.5 mph - N/A   Clear
10:58 PM 99.0 °F 98.6 °F 59.0 °F 26% 29.69 in 10.0 mi WSW 6.9 mph - N/A   Clear
11:58 PM 97.5 °F 97.3 °F 58.8 °F 28% 29.71 in 10.0 mi SSW 10.4 mph - N/A   Clear